This demonstration page uses our WeatherBlox Daily Observations layout. Learn more.

Left ArrowRight Arrow

38.89511, -77.03637

Hourly Observations for December 7, 2020

Temp ( °F °C ) Dew Point ( °F °C ) Humidity (%) Winds ( mph kmh ) Pressure ( in mb ) Visibility ( mi km ) Precip ( " mm )
12:52 am 00:52 Cloudy 34 1.1 23 -5 64 64 NNW 6 9 29.95 1014 10 16 0.00 0.00
1:52 am 01:52 Cloudy 34 1.1 24 -4.4 67 67 NNW 7 11 29.93 1014 10 16 0.00 0.00
2:52 am 02:52 Partly Cloudy 33 0.6 23 -5 66 66 NNW 7 11 29.92 1013 10 16 0.00 0.00
3:52 am 03:52 Mostly Cloudy 33 0.6 23 -5 66 66 NNW 7 11 29.91 1013 10 16 0.00 0.00
4:52 am 04:52 Cloudy 34 1.1 23 -5 64 64 NNW 7 11 29.92 1013 10 16 0.00 0.00
5:52 am 05:52 Cloudy 34 1.1 23 -5 64 64 NNW 6 9 29.91 1013 10 16 0.00 0.00
6:52 am 06:52 Cloudy 34 1.1 24 -4.4 67 67 NNW 8 13 29.90 1013 10 16 0.00 0.00
7:52 am 07:52 Cloudy 35 1.7 23 -5 61 61 NNW 6 9 29.90 1013 10 16 0.00 0.00
8:52 am 08:52 Cloudy 35 1.7 24 -4.4 64 64 NNW 7 11 29.89 1012 10 16 0.00 0.00
9:52 am 09:52 Mostly Cloudy 36 2.2 22 -5.6 57 57 N 5 7 29.90 1013 10 16 0.00 0.00
10:52 am 10:52 Mostly Cloudy 38 3.3 24 -4.4 57 57 NNW 5 7 29.88 1012 10 16 0.00 0.00
11:52 am 11:52 Mostly Cloudy 39 3.9 24 -4.4 55 55 Calm 29.83 1010 10 16 0.00 0.00
12:52 pm 12:52 Partly Cloudy 40 4.4 25 -3.9 55 55 N 6 9 29.81 1009 10 16 0.00 0.00
1:52 pm 13:52 Partly Cloudy 42 5.6 24 -4.4 49 49 NW 9 15 29.79 1009 10 16 0.00 0.00
2:52 pm 14:52 Partly Cloudy 41 5 24 -4.4 51 51 N 8 13 29.78 1008 10 16 0.00 0.00
3:52 pm 15:52 Partly Cloudy 40 4.4 21 -6.1 47 47 NW 13 20 29.79 1009 10 16 0.00 0.00
4:52 pm 16:52 Partly Cloudy 39 3.9 22 -5.6 50 50 NNW 12 19 29.79 1009 10 16 0.00 0.00
5:52 pm 17:52 Partly Cloudy 37 2.8 22 -5.6 54 54 NW 10 17 29.80 1009 10 16 0.00 0.00
6:52 pm 18:52 Partly Cloudy 36 2.2 22 -5.6 57 57 NW 12 19 29.81 1010 10 16 0.00 0.00
7:52 pm 19:52 Mostly Cloudy 36 2.2 21 -6.1 55 55 NW 13 20 29.83 1010 10 16 0.00 0.00
8:52 pm 20:52 Partly Cloudy 36 2.2 20 -6.7 52 52 NW 14 22 29.83 1010 10 16 0.00 0.00
9:52 pm 21:52 Partly Cloudy 35 1.7 19 -7.2 52 52 NW 9 15 29.83 1010 10 16 0.00 0.00
10:52 pm 22:52 Mostly Clear 35 1.7 19 -7.2 52 52 NW 12 19 29.83 1010 10 16 0.00 0.00
11:52 pm 23:52 Clear 34 1.1 19 -7.2 54 54 NW 14 22 29.82 1010 10 16 0.00 0.00

Powered by AerisWeather